Temperature
8 8 7 8 8 8 8 10 11 12 11 12 12 11 10 9 8 7 7 7 7 7 7 7 7 7 7 6 6 6 6 5 5 5 5 5 5 5 5 5 5 4 4 4
7 7 7 7 8 8 8 8 9 10 10 11 10 9 8 8 7 7 7 7 7 7 7 7 7 7 6 6 6 6 5 5 5 5 5 5 5 4 4 4 4 4 4 4
8 7 7 9 9 8 8 8 9 9 11 10 9 8 8 7 7 7 7 7 7 7 7 7 6 6 6 6 5 5 5 5 4 4 4 4 4 4 4 4 4 4 3 3
7 7 8 11 8 8 8 8 8 8 9 9 8 7 7 7 7 7 7 7 7 7 7 6 6 6 5 5 5 5 4 4 4 4 4 4 4 3 3 3 3 3 3 3
7 8 9 10 8 7 7 9 8 8 8 7 6 6 7 7 7 7 7 7 7 7 6 6 6 5 5 5 4 4 4 4 4 3 3 3 3 3 3 3 3 3 2 2
7 7 9 11 8 6 7 9 8 7 7 6 6 8 9 7 7 7 7 7 6 6 6 5 5 5 4 4 4 4 4 3 3 3 3 3 3 2 2 2 2 2 2 2
6 7 9 9 6 6 9 11 8 6 6 6 6 8 7 7 7 6 6 6 6 6 5 5 4 4 4 4 4 3 3 3 3 2 2 2 2 2 2 2 2 2 2 1
6 6 8 7 6 8 10 7 7 6 6 6 6 6 6 6 6 6 6 5 5 5 5 4 4 4 4 3 3 3 3 3 2 2 2 2 2 2 1 1 1 1 1 1
7 9 8 6 7 7 7 7 7 7 7 6 6 6 6 6 5 5 5 5 5 4 4 4 4 3 3 3 3 3 2 2 2 2 2 1 1 1 1 1 0 0 -0 -0
5 6 6 5 6 6 6 6 7 6 6 6 6 5 5 5 5 5 4 4 4 4 4 3 3 3 3 2 2 2 2 2 1 1 1 1 1 1 0 0 -0 -1 -1 -1
5 6 5 5 6 7 6 6 6 6 6 5 5 5 5 4 4 4 4 4 3 3 3 3 3 2 2 2 2 2 1 1 1 1 1 1 0 0 -0 -0 -1 -1 -1 -1
7 7 6 7 6 6 6 6 6 5 5 5 5 4 4 4 4 4 3 3 3 3 2 2 2 2 2 1 1 1 1 1 1 0 0 0 -0 -0 -0 -0 -1 -1 -1 -2
6 6 5 5 5 5 5 5 5 4 4 4 4 4 4 3 3 3 3 2 2 2 2 2 2 2 1 1 1 1 0 0 0 -0 -0 -1 -1 -1 -1 -1 -1 -1 -2 -2
5 4 4 4 4 4 4 4 4 3 3 3 3 3 3 3 2 2 2 2 2 2 2 2 1 1 1 1 0 0 -0 -0 -0 -1 -1 -1 -1 -2 -2 -2 -2 -2 -2 -2
4 3 3 3 3 3 3 3 3 3 3 2 2 2 2 2 2 2 2 1 1 1 1 1 1 1 0 0 -0 -0 -0 -1 -1 -1 -1 -1 -2 -2 -2 -3 -3 -3 -3 -2
3 3 3 2 2 2 2 2 2 2 2 2 2 2 1 1 1 1 1 1 1 1 1 1 1 0 0 -0 -0 -1 -1 -1 -1 -2 -2 -2 -2 -3 -3 -3 -3 -4 -4 -4
1 1 2 1 2 2 2 2 1 1 1 1 1 1 1 1 1 1 1 1 1 1 1 0 0 0 -0 -0 -1 -1 -1 -1 -2 -2 -2 -3 -3 -3 -3 -4 -4 -4 -4 -4
1 1 1 1 1 1 1 1 1 1 1 1 1 0 0 0 0 0 0 0 0 0 0 0 -0 -0 -0 -1 -1 -1 -2 -2 -2 -2 -3 -3 -3 -4 -4 -4 -4 -5 -4 -5
1 1 1 1 1 1 1 1 0 0 0 0 0 0 0 -0 -0 -0 -0 -0 -0 -0 0 -0 -0 -1 -1 -1 -2 -2 -2 -2 -2 -3 -3 -3 -4 -4 -4 -5 -5 -5 -5 -5
0 0 0 0 0 0 0 0 0 -0 -0 -0 -0 -0 -0 -0 -1 -1 -1 -1 -1 -1 -1 -1 -1 -1 -1 -2 -2 -2 -2 -3 -3 -3 -3 -4 -4 -5 -5 -5 -5 -5 -5 -6
-0 -0 -0 -0 -0 -0 -0 -0 -0 -0 -0 -1 -1 -1 -1 -1 -1 -1 -1 -1 -1 -1 -1 -1 -1 -2 -2 -2 -2 -3 -3 -3 -3 -4 -4 -4 -5 -5 -5 -5 -5 -6 -6 -6
-0 -1 -1 -1 -1 -1 -1 -1 -1 -1 -1 -1 -1 -1 -1 -1 -1 -2 -2 -2 -1 -2 -2 -2 -2 -2 -2 -3 -3 -3 -3 -3 -4 -4 -4 -5 -5 -5 -5 -5 -6 -6 -6 -6
-1 -1 -1 -1 -1 -1 -1 -1 -1 -1 -1 -1 -1 -2 -2 -2 -2 -2 -2 -2 -2 -2 -2 -2 -2 -2 -3 -3 -3 -3 -4 -4 -4 -4 -5 -5 -5 -5 -5 -6 -6 -6 -6 -6
-1 -1 -1 -1 -2 -2 -2 -1 -2 -2 -2 -2 -2 -2 -2 -2 -2 -2 -2 -2 -2 -3 -3 -3 -3 -3 -3 -3 -4 -4 -4 -4 -4 -5 -5 -5 -5 -6 -6 -6 -6 -6 -6 -6
-2 -2 -2 -2 -2 -2 -2 -2 -2 -2 -2 -2 -2 -2 -2 -2 -3 -3 -3 -3 -3 -3 -3 -3 -3 -3 -4 -4 -4 -4 -4 -5 -5 -5 -6 -6 -6 -6 -6 -6 -6 -6 -6 -7
-2 -2 -2 -2 -2 -2 -3 -3 -3 -3 -3 -3 -3 -3 -3 -3 -3 -3 -3 -3 -3 -4 -4 -4 -4 -4 -4 -4 -4 -5 -5 -5 -5 -6 -6 -6 -6 -6 -6 -6 -6 -7 -7 -7
-3 -3 -3 -3 -3 -3 -3 -3 -3 -3 -3 -3 -3 -3 -3 -3 -4 -4 -4 -4 -4 -4 -4 -4 -4 -5 -5 -5 -5 -5 -5 -6 -6 -6 -6 -6 -6 -6 -6 -7 -7 -7 -7 -7
Wind_Speed
6 6 5 8 10 11 13 12 10 10 11 12 9 8 7 6 6 6 7 6 6 5 5 4 3 3 3 3 2 2 2 3 3 3 3 3 3 4 4 4 5 5 6 6
4 4 6 9 14 15 15 14 16 16 15 11 8 6 6 7 7 8 8 7 7 6 5 4 4 4 3 3 2 2 3 3 3 3 3 3 4 4 4 5 5 5 6 6
4 3 6 10 11 14 9 11 11 13 10 5 4 6 7 7 7 8 8 7 6 6 5 5 4 4 4 3 3 3 3 4 4 4 4 4 4 4 5 5 5 6 7 7
3 3 8 3 1 6 10 10 12 12 9 6 6 5 5 6 7 7 6 6 5 5 5 4 3 3 3 3 3 4 4 4 4 4 4 4 5 5 6 6 6 6 7 8
3 5 9 6 3 5 6 6 8 12 10 6 3 3 3 3 4 6 5 5 4 4 4 3 3 3 3 3 3 4 5 5 4 4 5 5 6 6 6 6 6 7 7 8
5 6 7 2 3 3 3 5 3 6 6 4 4 4 2 1 2 3 3 2 2 2 3 3 3 3 3 4 4 5 5 5 5 5 5 6 7 7 6 6 7 7 8 9
10 9 9 3 4 6 4 2 2 4 5 6 6 4 1 1 2 2 2 2 2 2 3 3 3 3 4 5 5 5 5 5 5 6 6 7 7 6 6 6 7 8 9 10
8 9 9 5 8 7 3 1 2 3 5 6 6 4 4 4 3 3 3 2 3 3 3 3 3 4 5 6 5 4 4 5 6 6 6 6 7 7 7 7 8 9 9 10
9 8 2 6 6 4 3 4 4 4 5 6 6 6 6 5 5 4 4 4 4 4 4 4 4 5 6 6 5 4 5 6 6 6 6 6 7 7 7 7 7 8 8 9
9 11 10 9 9 8 7 8 7 6 6 6 7 7 7 6 6 6 5 5 4 5 5 5 5 6 7 6 5 5 6 7 6 6 7 7 6 6 7 7 8 8 8 9
11 11 10 10 10 10 9 9 8 8 7 8 8 9 8 8 7 6 6 5 5 6 6 6 6 6 6 6 5 6 7 7 7 7 7 7 7 7 8 9 9 10 9 9
12 10 9 9 6 7 8 9 9 9 8 8 8 9 9 8 7 6 6 5 5 6 7 7 6 7 6 6 6 7 7 7 6 6 6 7 7 8 10 12 14 16 16 15
14 10 10 10 9 8 9 9 8 8 8 9 8 8 8 7 6 6 6 6 7 7 7 7 7 7 7 6 6 7 8 7 6 6 7 7 7 8 9 9 12 14 16 16
12 10 10 10 10 9 8 8 6 6 7 7 6 6 6 6 6 6 7 7 6 6 6 7 7 8 7 6 6 8 8 8 8 7 7 7 8 8 8 9 10 10 10 13
12 11 11 9 8 7 6 5 5 6 6 5 5 5 6 6 7 7 6 5 5 6 7 7 8 8 7 6 7 8 7 7 7 7 7 8 8 8 8 9 10 10 10 10
8 8 9 8 9 8 6 6 7 8 7 6 6 6 6 6 6 6 6 5 6 7 7 7 9 8 6 6 7 7 7 9 8 7 7 7 7 8 8 9 9 10 10 9
7 8 7 8 8 8 8 8 8 7 6 7 7 6 5 5 5 6 6 6 6 7 8 8 9 8 6 6 7 6 6 7 8 8 8 8 8 8 9 9 9 10 10 10
10 10 8 8 8 8 7 6 6 6 6 6 5 5 5 6 7 7 6 5 6 8 8 9 8 7 7 7 6 6 6 7 7 7 8 8 8 8 9 9 10 11 10 10
5 6 5 5 5 5 5 5 5 4 4 4 4 5 6 6 6 6 5 6 7 8 8 6 6 7 7 7 7 6 7 7 8 8 8 10 10 9 9 9 10 10 10 9
2 3 3 2 2 3 3 4 3 3 3 3 3 4 5 6 5 5 6 7 8 7 7 7 7 7 7 7 7 6 7 8 8 8 8 8 9 9 9 9 10 10 10 9
2 2 1 2 2 2 2 3 3 3 3 3 4 5 6 6 5 5 6 7 8 7 7 8 7 6 6 6 7 7 7 8 8 8 9 9 9 9 10 10 10 9 9 9
2 2 2 2 2 3 3 3 3 4 4 4 5 5 6 7 7 6 8 8 8 8 7 6 6 8 8 9 7 8 8 9 9 8 9 9 9 9 10 10 9 9 8 8
3 3 3 4 4 4 4 4 4 5 5 6 6 7 7 7 6 6 8 6 6 8 7 7 9 11 13 9 8 8 9 9 9 9 9 9 9 9 9 10 9 8 8 8
4 4 4 4 4 4 6 6 5 5 6 7 7 8 7 7 7 7 7 9 10 11 8 10 13 14 13 8 8 8 9 9 9 9 9 9 9 9 9 9 8 8 8 9
5 5 5 4 5 5 6 6 6 6 7 6 8 8 7 6 7 7 7 8 10 11 9 10 13 13 10 8 8 8 8 9 9 9 9 8 8 8 8 8 8 8 7 7
5 5 6 6 6 6 5 5 6 6 6 7 7 6 6 6 7 8 7 8 10 11 10 8 8 9 7 8 8 9 9 9 9 9 8 8 9 8 8 8 9 7 7 7
6 6 5 6 6 5 5 6 6 7 6 7 8 7 7 6 7 7 8 8 8 8 8 7 7 7 7 8 8 8 8 8 8 8 8 7 7 7 7 8 7 7 6 6
Wind_Direction
266 273 258 251 244 223 221 232 244 257 258 267 270 261 247 233 216 205 202 200 202 207 209 210 215 226 236 248 257 260 264 269 277 284 284 282 281 281 281 279 277 277 275 271
268 257 260 264 252 239 235 240 247 262 269 272 276 263 246 231 220 216 215 212 213 217 223 224 229 235 241 250 258 255 258 267 276 277 279 280 283 285 283 282 281 277 273 274
263 292 291 264 244 222 218 220 227 241 254 262 255 250 244 234 224 224 223 219 220 224 228 232 235 237 243 252 254 254 261 270 273 276 280 286 290 286 283 283 283 280 277 275
271 280 250 260 110 211 225 240 230 246 262 267 268 276 265 242 232 230 226 224 227 231 235 236 234 235 240 244 245 252 259 266 271 275 280 286 285 282 281 280 278 279 279 278
228 259 274 273 217 191 212 257 232 237 251 260 269 264 249 235 240 238 235 235 240 236 229 224 224 225 229 239 246 253 260 267 272 274 277 279 279 280 282 281 279 279 279 277
221 242 254 263 142 163 197 259 209 213 231 219 193 232 239 175 235 239 236 236 238 227 219 221 219 216 229 243 250 257 265 271 273 270 269 272 275 280 281 279 279 281 278 276
227 242 263 255 147 157 219 295 141 199 213 197 209 245 314 248 236 223 221 222 215 213 222 230 222 220 237 248 255 264 269 271 272 270 270 273 276 275 276 277 278 277 278 278
206 227 252 165 158 199 254 11 201 216 213 211 228 251 249 242 239 233 229 226 221 223 235 237 227 228 244 253 263 269 268 269 271 273 273 272 273 276 276 275 277 280 282 284
210 229 290 180 213 244 266 251 247 239 232 224 237 249 249 244 240 240 238 235 230 232 243 245 235 235 250 262 267 266 267 269 273 276 274 271 271 274 277 274 273 278 281 283
248 258 260 254 253 259 255 256 259 254 247 234 243 250 249 248 247 243 239 234 232 237 247 253 248 249 256 266 263 260 265 271 274 274 276 275 271 268 268 270 273 276 278 281
252 266 277 260 247 251 253 252 254 254 250 246 249 253 251 252 252 249 243 238 236 241 250 258 258 258 261 260 256 258 264 268 270 269 272 275 273 268 267 268 268 274 277 279
252 254 251 265 264 252 248 251 251 251 254 250 243 249 251 253 253 249 244 240 240 246 252 261 263 264 264 257 252 254 261 265 267 269 272 274 278 282 263 260 272 271 271 273
256 265 263 271 272 262 257 257 254 248 251 256 254 250 250 253 250 245 243 240 242 248 256 262 263 265 264 257 250 250 256 263 266 267 269 271 274 278 288 284 271 271 271 273
251 257 262 260 260 258 256 257 257 260 261 258 257 251 245 247 247 243 243 243 247 254 258 260 261 264 265 258 252 254 259 260 259 264 266 269 271 273 276 284 291 290 282 278
252 247 253 263 264 259 254 249 252 258 260 259 252 242 237 239 244 247 249 249 251 255 257 258 260 265 266 257 254 257 260 261 261 266 267 269 271 272 272 275 278 284 290 290
256 252 250 251 255 257 255 251 251 256 256 255 252 247 245 246 250 252 251 242 245 255 260 262 264 268 267 259 256 259 259 254 257 266 269 270 269 270 272 274 277 280 282 287
245 250 248 252 255 257 254 252 254 258 256 251 250 249 246 245 251 253 253 250 254 261 265 263 266 271 265 256 254 259 264 265 259 265 266 268 269 270 272 273 275 278 279 281
245 251 250 250 251 254 256 256 254 254 253 255 252 242 238 240 248 257 264 270 272 274 269 262 262 265 262 256 254 259 262 265 265 266 269 269 270 271 272 273 275 277 282 284
251 250 251 251 247 243 247 249 251 252 254 248 242 245 250 253 257 261 266 266 267 273 277 269 259 262 265 261 258 259 260 264 267 268 269 272 274 273 273 274 275 277 280 282
270 264 258 262 256 238 241 247 246 251 252 240 241 251 259 261 259 259 261 263 263 265 275 279 276 270 267 264 258 260 260 263 267 270 272 271 273 274 275 274 276 278 278 278
295 292 270 261 273 274 258 248 243 254 262 247 243 252 262 270 267 260 263 273 276 268 268 271 268 267 267 268 266 263 263 265 267 269 270 271 273 274 275 275 275 276 277 276
295 288 279 277 280 288 286 272 261 262 268 265 263 261 265 271 270 266 258 260 274 277 278 274 269 266 269 275 270 267 267 268 268 269 269 269 270 272 273 275 276 276 275 274
279 277 276 275 276 284 289 281 268 261 261 262 261 259 260 264 266 266 275 270 269 275 276 272 271 274 279 278 271 269 270 269 270 270 270 270 269 270 272 274 274 273 274 274
271 271 273 279 282 282 283 283 277 270 267 269 265 261 261 268 269 258 259 274 279 281 278 275 278 281 283 276 271 270 270 270 271 271 272 271 270 269 270 271 272 272 271 272
279 278 274 272 273 273 275 280 282 278 274 273 272 268 259 253 260 273 276 276 278 281 280 278 280 282 279 273 270 270 271 270 271 273 271 271 270 270 270 271 270 271 271 270
274 273 272 267 266 271 274 273 274 276 278 280 282 279 273 266 264 270 274 276 276 278 278 278 278 279 275 273 272 273 273 275 275 272 269 270 270 270 270 269 269 268 268 267
276 273 273 275 271 264 262 263 267 272 272 274 281 284 283 280 277 276 277 279 280 279 278 277 276 275 275 275 275 275 274 274 273 271 270 269 268 268 267 267 267 267 267 265
Height
1511 1512 1512 1509 1508 1510 1509 1500 1496 1487 1488 1483 1485 1487 1488 1489 1490 1491 1491 1492 1493 1494 1495 1496 1496 1496 1496 1496 1495 1494 1494 1493 1492 1491 1490 1489 1488 1487 1486 1485 1484 1483 1481 1479
1512 1512 1512 1509 1503 1502 1502 1500 1495 1491 1487 1483 1485 1486 1486 1487 1487 1488 1489 1490 1491 1491 1492 1493 1493 1493 1493 1493 1492 1491 1491 1490 1489 1488 1487 1486 1485 1483 1482 1481 1479 1478 1476 1475
1505 1510 1508 1496 1488 1491 1492 1490 1489 1486 1481 1482 1483 1484 1484 1484 1484 1485 1486 1487 1488 1488 1489 1489 1490 1490 1490 1489 1489 1488 1488 1487 1486 1485 1483 1482 1481 1479 1478 1476 1475 1473 1472 1470
1508 1507 1501 1481 1487 1486 1487 1485 1485 1483 1481 1482 1482 1482 1482 1482 1482 1482 1483 1484 1485 1485 1486 1486 1487 1487 1487 1486 1486 1485 1484 1483 1482 1481 1479 1478 1477 1475 1474 1472 1470 1468 1467 1465
1508 1499 1486 1481 1484 1486 1485 1480 1479 1480 1479 1481 1481 1481 1480 1479 1479 1480 1481 1482 1482 1482 1483 1483 1483 1483 1483 1483 1482 1481 1480 1479 1478 1477 1475 1474 1472 1471 1469 1467 1465 1463 1461 1459
1504 1500 1486 1475 1482 1483 1485 1476 1475 1476 1477 1479 1480 1478 1476 1477 1477 1478 1479 1479 1479 1480 1480 1480 1480 1480 1480 1479 1478 1478 1477 1475 1474 1473 1471 1470 1468 1466 1464 1462 1460 1458 1456 1454
1500 1495 1479 1477 1481 1484 1480 1471 1474 1474 1475 1476 1477 1476 1476 1476 1476 1476 1476 1477 1477 1477 1477 1477 1477 1477 1476 1475 1475 1474 1472 1471 1470 1468 1467 1465 1463 1461 1460 1457 1455 1452 1450 1447
1495 1492 1480 1476 1479 1477 1472 1472 1472 1472 1473 1474 1474 1474 1473 1473 1474 1474 1474 1474 1474 1474 1474 1473 1473 1473 1472 1471 1470 1469 1468 1467 1465 1464 1462 1461 1459 1456 1454 1452 1449 1446 1443 1441
1481 1475 1472 1473 1472 1471 1471 1471 1470 1471 1471 1471 1471 1471 1471 1471 1471 1471 1471 1471 1471 1470 1470 1469 1469 1468 1468 1467 1466 1465 1463 1462 1461 1459 1458 1456 1454 1451 1449 1446 1443 1440 1437 1434
1478 1470 1470 1470 1469 1468 1468 1468 1468 1468 1468 1468 1468 1467 1467 1467 1467 1467 1467 1467 1467 1466 1466 1465 1465 1464 1464 1463 1461 1460 1459 1457 1456 1454 1452 1450 1448 1446 1443 1440 1437 1434 1431 1428
1472 1467 1467 1464 1464 1464 1464 1464 1464 1464 1464 1464 1464 1463 1463 1463 1463 1463 1462 1462 1462 1462 1461 1461 1460 1460 1459 1458 1457 1455 1454 1452 1451 1449 1447 1444 1442 1440 1437 1435 1432 1429 1426 1423
1462 1461 1462 1460 1460 1460 1460 1460 1460 1460 1459 1459 1459 1459 1458 1458 1458 1458 1457 1457 1457 1456 1456 1456 1455 1455 1454 1453 1451 1450 1448 1447 1445 1443 1441 1438 1436 1433 1430 1428 1425 1423 1419 1417
1457 1456 1456 1455 1455 1455 1455 1454 1454 1454 1454 1454 1453 1453 1453 1452 1452 1452 1452 1452 1452 1451 1451 1451 1450 1449 1448 1447 1446 1444 1442 1441 1439 1437 1435 1432 1429 1426 1423 1420 1418 1415 1413 1409
1451 1452 1451 1450 1450 1450 1449 1449 1449 1449 1448 1448 1448 1447 1447 1447 1447 1447 1447 1447 1447 1447 1446 1446 1445 1444 1443 1442 1440 1438 1437 1435 1433 1431 1428 1426 1423 1420 1417 1413 1410 1407 1405 1402
1445 1446 1445 1444 1444 1444 1444 1444 1444 1443 1443 1442 1442 1442 1442 1442 1442 1442 1442 1442 1442 1442 1441 1441 1440 1439 1437 1436 1434 1432 1430 1429 1427 1424 1422 1419 1416 1414 1411 1407 1404 1400 1397 1395
1439 1439 1439 1439 1439 1438 1438 1438 1438 1438 1438 1437 1437 1437 1437 1437 1437 1437 1437 1437 1437 1436 1436 1435 1434 1433 1431 1430 1428 1426 1424 1422 1420 1418 1415 1413 1410 1407 1404 1401 1398 1394 1391 1388
1435 1433 1433 1433 1433 1433 1433 1433 1433 1433 1433 1433 1433 1433 1432 1432 1432 1432 1432 1432 1432 1431 1430 1429 1428 1427 1425 1424 1422 1420 1418 1416 1414 1411 1409 1406 1403 1400 1397 1395 1391 1388 1385 1383
1429 1428 1429 1429 1428 1428 1428 1429 1428 1428 1428 1428 1428 1428 1428 1428 1428 1428 1428 1427 1426 1425 1425 1424 1422 1421 1419 1418 1416 1414 1411 1409 1407 1404 1402 1399 1396 1394 1391 1388 1385 1382 1379 1376
1424 1424 1424 1424 1424 1424 1424 1424 1424 1424 1424 1424 1424 1424 1424 1424 1423 1423 1423 1422 1421 1420 1419 1418 1417 1415 1413 1412 1410 1407 1405 1403 1400 1397 1395 1392 1390 1387 1384 1381 1378 1375 1373 1370
1421 1421 1421 1421 1421 1421 1421 1421 1421 1421 1421 1421 1420 1420 1420 1419 1419 1419 1418 1416 1415 1414 1413 1412 1410 1409 1407 1405 1403 1401 1399 1396 1393 1391 1388 1385 1383 1380 1377 1375 1372 1369 1366 1364
1419 1419 1419 1419 1419 1418 1418 1418 1418 1418 1417 1417 1417 1416 1416 1415 1415 1414 1412 1411 1410 1409 1407 1406 1404 1402 1401 1399 1397 1394 1392 1389 1387 1384 1381 1379 1376 1373 1371 1368 1366 1363 1360 1358
1418 1417 1417 1417 1417 1416 1416 1416 1415 1415 1414 1414 1413 1413 1412 1411 1410 1409 1407 1406 1404 1403 1401 1399 1398 1396 1394 1392 1390 1388 1385 1383 1380 1377 1375 1372 1369 1367 1364 1362 1359 1356 1354 1352
1416 1416 1415 1415 1414 1414 1413 1413 1412 1412 1411 1410 1409 1408 1407 1406 1405 1403 1401 1400 1399 1397 1395 1393 1391 1390 1388 1386 1383 1381 1378 1376 1373 1370 1368 1365 1363 1360 1358 1355 1353 1350 1348 1346
1414 1413 1413 1412 1412 1411 1410 1409 1408 1407 1407 1406 1405 1404 1402 1401 1399 1397 1396 1394 1392 1390 1388 1386 1385 1383 1381 1378 1376 1374 1371 1368 1366 1363 1361 1358 1356 1353 1351 1349 1346 1344 1342 1340
1411 1410 1409 1408 1408 1407 1406 1405 1404 1403 1402 1400 1399 1398 1397 1395 1393 1391 1389 1387 1385 1383 1381 1379 1378 1376 1373 1371 1369 1366 1364 1361 1359 1356 1354 1352 1349 1347 1345 1342 1340 1338 1336 1334
1407 1406 1405 1404 1403 1402 1401 1400 1399 1397 1396 1394 1393 1392 1390 1389 1387 1385 1382 1380 1378 1376 1374 1372 1370 1368 1366 1364 1361 1359 1356 1354 1351 1349 1347 1345 1343 1341 1339 1336 1335 1333 1331 1329
1402 1401 1400 1399 1398 1397 1396 1394 1393 1392 1390 1389 1387 1385 1384 1382 1380 1378 1376 1374 1372 1369 1367 1365 1363 1361 1359 1356 1354 1352 1349 1347 1345 1343 1340 1338 1336 1335 1333 1331 1329 1327 1325 1324